When you browse on this site, cookies collect data to enhance your experience and personalize the content and advertising you see.
Visit our Privacy Policy to learn more. By continuing to use the site, you agree to this use of cookies and data.
  • In Latvia
  • List of Countries
  • For 7 days
  • Water Temperature
  • Weather Map
  • Weather Widgets
  • user-avatar
    Login

    Hourly Weather Baar

    Today, 23 October, Wednesday

    Time Temperature Precipitation Wind Pressure Humidity
    00:00 +12°C° 0 mm 1 mps 725 mmHg 92%
    01:00 +12°C° 0 mm 1 mps 724 mmHg 92%
    02:00 +12°C° 0 mm 1 mps 724 mmHg 92%
    03:00 +12°C° 0 mm 1 mps 724 mmHg 91%
    04:00 +12°C° 0 mm 1 mps 723 mmHg 91%
    05:00 +11°C° 0 mm 1 mps 723 mmHg 91%
    06:00 +11°C° 0 mm 1 mps 723 mmHg 91%
    07:00 +11°C° 0 mm 1 mps 723 mmHg 91%
    08:00 +13°C° 0 mm 1 mps 723 mmHg 85%
    09:00 +15°C° 0 mm 1 mps 723 mmHg 80%
    10:00 +18°C° 0 mm 1 mps 722 mmHg 75%
    11:00 +19°C° 0 mm 1 mps 722 mmHg 69%
    12:00 +20°C° 0 mm 2 mps 722 mmHg 63%
    13:00 +21°C° 0 mm 2 mps 722 mmHg 57%
    14:00 +20°C° 0 mm 2 mps 721 mmHg 61%
    15:00 +20°C° 0 mm 2 mps 721 mmHg 65%
    16:00 +19°C° 0 mm 2 mps 721 mmHg 70%
    17:00 +18°C° 0 mm 2 mps 721 mmHg 72%
    18:00 +17°C° 0 mm 2 mps 721 mmHg 73%
    19:00 +15°C° 0 mm 2 mps 721 mmHg 75%
    20:00 +15°C° 0 mm 2 mps 720 mmHg 75%
    21:00 +15°C° 0 mm 2 mps 720 mmHg 75%
    22:00 +15°C° 0 mm 2 mps 720 mmHg 75%
    23:00 +15°C° 0 mm 2 mps 720 mmHg 75%

    Tomorrow, 24 October, Thursday

    Time Temperature Precipitation Wind Pressure Humidity
    00:00 +14°C° 0 mm 2 mps 719 mmHg 75%
    01:00 +14°C° 0 mm 2 mps 719 mmHg 75%
    02:00 +14°C° 0 mm 2 mps 719 mmHg 76%
    03:00 +14°C° 0 mm 2 mps 719 mmHg 77%
    04:00 +13°C° 0 mm 2 mps 719 mmHg 78%
    05:00 +13°C° 0 mm 2 mps 719 mmHg 79%
    06:00 +13°C° 0 mm 2 mps 719 mmHg 79%
    07:00 +13°C° 0 mm 1 mps 719 mmHg 80%
    08:00 +14°C° 0 mm 1 mps 719 mmHg 75%
    09:00 +16°C° 0 mm 1 mps 720 mmHg 70%
    10:00 +17°C° 0 mm 0 mps 720 mmHg 65%
    11:00 +20°C° 0 mm 1 mps 720 mmHg 63%
    12:00 +20°C° 0 mm 1 mps 720 mmHg 61%
    13:00 +21°C° 0 mm 1 mps 720 mmHg 60%
    14:00 +20°C° 0.1 mm 1 mps 720 mmHg 66%
    15:00 +19°C° 0.1 mm 1 mps 720 mmHg 73%
    16:00 +18°C° 0.1 mm 2 mps 720 mmHg 79%
    17:00 +18°C° 0.1 mm 1 mps 721 mmHg 83%
    18:00 +16°C° 0.1 mm 1 mps 721 mmHg 87%
    19:00 +14°C° 0.1 mm 0 mps 721 mmHg 91%
    20:00 +14°C° 0.3 mm 0 mps 722 mmHg 92%
    21:00 +15°C° 0.3 mm 1 mps 722 mmHg 93%
    22:00 +14°C° 0.3 mm 1 mps 723 mmHg 94%
    23:00 +14°C° 0.3 mm 1 mps 723 mmHg 95%

    Day after tomorrow, 25 October, Friday

    Time Temperature Precipitation Wind Pressure Humidity
    00:00 +14°C° 0.3 mm 1 mps 724 mmHg 95%
    01:00 +14°C° 0.3 mm 1 mps 724 mmHg 95%
    02:00 +13°C° 0.1 mm 1 mps 724 mmHg 94%
    03:00 +12°C° 0.1 mm 0 mps 724 mmHg 94%
    04:00 +12°C° 0.1 mm 0 mps 724 mmHg 93%
    05:00 +12°C° 0 mm 0 mps 725 mmHg 93%
    06:00 +11°C° 0 mm 0 mps 725 mmHg 93%
    07:00 +11°C° 0 mm 0 mps 725 mmHg 93%
    08:00 +12°C° 0 mm 0 mps 726 mmHg 90%
    09:00 +14°C° 0 mm 1 mps 726 mmHg 86%
    10:00 +15°C° 0 mm 1 mps 726 mmHg 83%
    11:00 +16°C° 0 mm 1 mps 726 mmHg 79%
    12:00 +18°C° 0 mm 1 mps 726 mmHg 76%
    13:00 +17°C° 0 mm 0 mps 726 mmHg 72%
    14:00 +16°C° 0 mm 0 mps 726 mmHg 74%
    15:00 +18°C° 0 mm 1 mps 726 mmHg 75%
    16:00 +18°C° 0 mm 1 mps 726 mmHg 76%
    17:00 +16°C° 0 mm 1 mps 726 mmHg 81%
    18:00 +13°C° 0 mm 0 mps 726 mmHg 85%
    19:00 +12°C° 0 mm 0 mps 726 mmHg 90%
    20:00 +11°C° 0 mm 0 mps 726 mmHg 90%
    21:00 +11°C° 0 mm 0 mps 726 mmHg 91%
    22:00 +10°C° 0 mm 0 mps 727 mmHg 91%
    23:00 +10°C° 0 mm 0 mps 726 mmHg 91%

    26 October, Saturday

    Time Temperature Precipitation Wind Pressure Humidity
    00:00 +10°C° 0 mm 0 mps 726 mmHg 91%
    01:00 +11°C° 0 mm 1 mps 726 mmHg 90%
    02:00 +11°C° 0 mm 1 mps 726 mmHg 89%
    03:00 +11°C° 0 mm 1 mps 726 mmHg 89%
    04:00 +11°C° 0 mm 1 mps 726 mmHg 88%
    05:00 +11°C° 0 mm 1 mps 725 mmHg 87%
    06:00 +11°C° 0 mm 1 mps 725 mmHg 86%
    07:00 +11°C° 0 mm 1 mps 725 mmHg 84%
    08:00 +12°C° 0 mm 0 mps 725 mmHg 79%
    09:00 +14°C° 0 mm 0 mps 726 mmHg 75%
    10:00 +16°C° 0 mm 0 mps 726 mmHg 70%
    11:00 +17°C° 0 mm 0 mps 726 mmHg 65%
    12:00 +19°C° 0 mm 0 mps 726 mmHg 60%
    13:00 +20°C° 0 mm 0 mps 726 mmHg 55%
    14:00 +20°C° 0 mm 0 mps 725 mmHg 59%
    15:00 +19°C° 0 mm 0 mps 725 mmHg 63%
    16:00 +19°C° 0 mm 0 mps 725 mmHg 68%
    17:00 +17°C° 0 mm 0 mps 725 mmHg 70%
    18:00 +18°C° 0 mm 1 mps 725 mmHg 72%
    19:00 +15°C° 0 mm 1 mps 725 mmHg 75%
    20:00 +15°C° 0 mm 1 mps 725 mmHg 73%
    21:00 +14°C° 0 mm 1 mps 725 mmHg 72%
    22:00 +14°C° 0 mm 1 mps 725 mmHg 70%
    23:00 +14°C° 0 mm 1 mps 725 mmHg 69%

    27 October, Sunday

    Time Temperature Precipitation Wind Pressure Humidity
    00:00 +13°C° 0 mm 1 mps 725 mmHg 68%
    01:00 +13°C° 0 mm 1 mps 725 mmHg 67%
    02:00 +13°C° 0 mm 1 mps 725 mmHg 66%
    03:00 +13°C° 0 mm 1 mps 725 mmHg 66%
    04:00 +13°C° 0 mm 1 mps 725 mmHg 65%
    05:00 +12°C° 0 mm 1 mps 725 mmHg 66%
    06:00 +12°C° 0 mm 1 mps 725 mmHg 66%
    07:00 +12°C° 0 mm 1 mps 725 mmHg 67%
    08:00 +13°C° 0 mm 0 mps 725 mmHg 63%
    09:00 +15°C° 0 mm 0 mps 725 mmHg 58%
    10:00 +18°C° 0 mm 0 mps 726 mmHg 54%
    11:00 +19°C° 0 mm 0 mps 725 mmHg 53%
    12:00 +20°C° 0 mm 0 mps 725 mmHg 51%
    13:00 +23°C° 0 mm 1 mps 725 mmHg 50%
    14:00 +20°C° 0 mm 0 mps 724 mmHg 54%
    15:00 +19°C° 0 mm 0 mps 724 mmHg 59%
    16:00 +19°C° 0 mm 0 mps 724 mmHg 64%
    17:00 +17°C° 0 mm 0 mps 724 mmHg 69%
    18:00 +16°C° 0 mm 1 mps 723 mmHg 73%
    19:00 +14°C° 0 mm 1 mps 723 mmHg 77%
    20:00 +14°C° 0 mm 1 mps 724 mmHg 77%
    21:00 +13°C° 0 mm 1 mps 724 mmHg 77%
    22:00 +13°C° 0 mm 1 mps 724 mmHg 77%
    23:00 +13°C° 0 mm 1 mps 723 mmHg 77%

    28 October, Monday

    Time Temperature Precipitation Wind Pressure Humidity
    00:00 +13°C° 0 mm 1 mps 723 mmHg 77%
    01:00 +12°C° 0 mm 1 mps 723 mmHg 77%
    02:00 +12°C° 0 mm 1 mps 723 mmHg 77%
    03:00 +12°C° 0 mm 1 mps 722 mmHg 77%
    04:00 +12°C° 0 mm 1 mps 722 mmHg 77%
    05:00 +12°C° 0 mm 1 mps 722 mmHg 77%
    06:00 +12°C° 0 mm 1 mps 722 mmHg 77%
    07:00 +10°C° 0 mm 0 mps 722 mmHg 78%
    08:00 +12°C° 0 mm 0 mps 722 mmHg 73%
    09:00 +14°C° 0 mm 0 mps 722 mmHg 69%
    10:00 +15°C° 0 mm 0 mps 722 mmHg 65%
    11:00 +16°C° 0 mm 0 mps 722 mmHg 63%
    12:00 +17°C° 0 mm 0 mps 721 mmHg 62%
    13:00 +20°C° 0 mm 1 mps 721 mmHg 60%
    14:00 +17°C° 0 mm 0 mps 721 mmHg 65%
    15:00 +17°C° 0 mm 0 mps 721 mmHg 69%
    16:00 +16°C° 0 mm 0 mps 720 mmHg 74%
    17:00 +15°C° 0 mm 0 mps 720 mmHg 78%
    18:00 +13°C° 0 mm 0 mps 720 mmHg 82%
    19:00 +12°C° 0 mm 0 mps 720 mmHg 86%
    20:00 +12°C° 0 mm 0 mps 720 mmHg 86%
    21:00 +11°C° 0 mm 0 mps 720 mmHg 87%
    22:00 +11°C° 0 mm 0 mps 721 mmHg 88%
    23:00 +11°C° 0 mm 0 mps 720 mmHg 88%

    29 October, Tuesday

    Time Temperature Precipitation Wind Pressure Humidity
    00:00 +11°C° 0 mm 0 mps 720 mmHg 89%
    01:00 +11°C° 0 mm 0 mps 720 mmHg 89%
    02:00 +10°C° 0 mm 0 mps 720 mmHg 89%
    03:00 +10°C° 0 mm 0 mps 720 mmHg 90%
    04:00 +10°C° 0 mm 0 mps 720 mmHg 90%
    05:00 +10°C° 0 mm 0 mps 720 mmHg 90%
    06:00 +10°C° 0 mm 0 mps 720 mmHg 90%
    07:00 +10°C° 0 mm 0 mps 720 mmHg 91%
    08:00 +11°C° 0 mm 0 mps 720 mmHg 89%
    09:00 +12°C° 0 mm 0 mps 720 mmHg 87%
    10:00 +13°C° 0 mm 0 mps 720 mmHg 85%
    11:00 +13°C° 0.1 mm 0 mps 720 mmHg 86%
    12:00 +13°C° 0.1 mm 0 mps 720 mmHg 87%
    13:00 +13°C° 0.1 mm 0 mps 721 mmHg 88%
    14:00 +12°C° 0.5 mm 0 mps 720 mmHg 91%
    15:00 +12°C° 0.5 mm 0 mps 720 mmHg 94%
    16:00 +12°C° 0.5 mm 0 mps 720 mmHg 97%
    17:00 +11°C° 0.9 mm 0 mps 721 mmHg 97%
    18:00 +11°C° 0.9 mm 0 mps 721 mmHg 97%
    19:00 +11°C° 0.9 mm 0 mps 721 mmHg 98%
    20:00 +11°C° 1.3 mm 0 mps 721 mmHg 98%
    21:00 +12°C° 1.3 mm 1 mps 721 mmHg 98%
    22:00 +12°C° 1.3 mm 1 mps 722 mmHg 97%
    23:00 +11°C° 2.4 mm 1 mps 722 mmHg 97%
    Show more